Hourly Data Report for February 17, 2019

TORONTO INTL A
ONTARIO
Current Station Operator: NAVCAN

43°40'36.000" N
79°37'50.000" W
173.40 m
6158731
71624
YYZ

Download Data

Hourly Data (February 2019)
Hourly Data Report for February 17, 2019
TIME
LST
Temp Definition
°C
Dew Point Definition
°C
Rel Hum Definition
%
Precip. Amount Definition
mm

Wind Dir Definition
10's deg

Wind Spd Definition
km/h
Visibility Definition
km
Stn Press Definition
kPa
Hmdx Definition


Wind Chill Definition


Weather Definition


00:00 -7.0 -12.0 67   36 18 24.1 99.95   -14 Snow
01:00 -7.8 -12.7 68   1 20 24.1 100.01   -15 Mainly Clear
02:00 -8.8 -13.5 69   1 15 24.1 100.03   -15 LegendNANA
03:00 -9.7 -14.2 70   3 10 24.1 100.02   -15 LegendNANA
04:00 -9.9 -14.2 71   3 11 24.1 99.99   -15 Mostly Cloudy
05:00 -10.3 -14.5 71   2 11 24.1 100.03   -16 LegendNANA
06:00 -10.7 -15.1 71   4 13 24.1 100.05   -17 LegendNANA
07:00 -10.9 -15.3 71   2 14 24.1 100.06   -18 Mostly Cloudy
08:00 -10.7 -15.1 70   4 16 24.1 100.03   -18 LegendNANA
09:00 -9.5 -14.1 69   4 17 24.1 99.99   -17 LegendNANA
10:00 -8.4 -13.1 69   6 16 19.3 99.96   -15 Cloudy
11:00 -7.0 -11.9 68   7 14 16.1 99.92   -13 LegendNANA
12:00 -6.2 -11.1 69   7 19 16.1 99.86   -13 LegendNANA
13:00 -6.3 -10.8 70   8 21 9.7 99.78   -13 Snow
14:00 -6.6 -11.0 71   7 24 16.1 99.71   -14 Snow
15:00 -6.6 -10.8 72   7 17 17.7 99.64   -13 Snow
16:00 -6.6 -10.9 72   6 19 24.1 99.56   -13 Snow
17:00 -6.9 -11.6 69   7 19 24.1 99.43   -14 LegendNANA
18:00 -6.8 -12.1 66   7 15 24.1 99.44   -13 LegendNANA
19:00 -6.7 -12.6 63   6 17 24.1 99.37   -13 Mostly Cloudy
20:00 -6.8 -13.4 59   7 21 24.1 99.27   -14 LegendNANA
21:00 -6.8 -13.7 58   6 17 24.1 99.28   -13 LegendNANA
22:00 -7.0 -14.0 58   3 22 24.1 99.28   -14 Mostly Cloudy
23:00 -7.2 -14.6 56   4 22 24.1 99.16   -15 Snow

Notes on Data Quality.

Legend

  • E = Estimated
  • M = Missing
  • NA = Not Available*
  • [empty] = Indicates an unobserved value
Date modified: